Theta_e
311 311 311 311 311 312 314 316 317 317 318 318 318 316 315 315 314 313 317 320 314 310 313 314 314 312 312 311 305 311 309 311 312 306 306 307 306 308 308 310 309 307 305 304 306 303 300 317 317 310 318 323 322 322
310 310 310 310 311 311 314 316 315 315 315 315 314 314 314 314 314 313 313 320 316 310 311 316 316 318 316 315 312 312 311 310 312 310 311 310 307 312 309 304 313 306 311 308 309 308 320 321 320 324 323 321 323 326
310 309 310 310 311 311 315 314 314 314 313 313 313 313 314 314 314 314 314 318 314 308 309 311 311 315 318 317 318 309 314 314 312 314 310 310 308 311 304 307 310 312 315 310 312 314 316 320 324 324 326 324 326 328
309 309 310 310 310 312 314 313 312 312 312 313 313 313 313 313 313 313 312 317 313 309 302 306 314 312 317 317 317 316 316 316 317 314 310 309 308 313 310 312 311 314 315 314 313 317 319 319 323 324 326 327 327 330
308 309 310 310 310 312 313 312 312 312 312 312 312 312 313 313 312 312 315 314 314 308 302 304 311 316 316 316 314 315 313 310 311 309 308 308 313 308 310 314 311 317 315 312 309 319 318 320 323 327 326 326 327 328
308 308 309 310 311 313 313 312 311 310 311 310 310 311 311 312 311 312 309 314 312 311 304 299 312 311 315 318 315 313 312 310 309 308 307 309 314 312 308 308 315 319 321 321 317 323 320 324 326 329 327 327 329 330
307 308 309 310 311 312 312 311 311 310 310 310 310 310 310 310 311 309 308 309 311 312 302 299 305 308 312 315 315 312 311 311 311 309 307 309 313 311 310 307 316 320 322 323 326 326 323 324 324 329 329 328 327 330
307 308 309 310 311 310 310 310 311 311 311 310 310 310 310 310 309 309 315 310 312 308 307 301 302 305 309 307 308 312 309 311 309 308 311 310 312 311 308 315 318 322 322 322 325 324 324 327 328 329 329 329 328 327
307 308 309 310 310 309 309 309 310 310 310 310 309 310 311 308 308 312 314 312 310 306 301 303 299 297 307 305 306 309 311 305 312 306 309 313 311 307 314 318 319 322 321 321 323 324 325 326 327 328 327 329 329 328
306 308 309 309 310 309 309 308 309 309 309 309 307 305 305 312 311 313 310 305 303 303 303 298 305 300 305 304 302 307 309 305 302 306 312 309 309 318 319 319 322 324 324 324 320 320 322 323 326 327 326 327 328 331
307 308 309 309 310 310 310 309 308 309 308 306 303 304 313 313 311 309 304 302 302 299 302 304 303 302 309 299 300 307 308 308 301 306 307 307 307 315 321 322 324 324 325 325 325 324 324 324 325 326 326 327 326 328
307 309 308 308 308 309 309 309 308 308 306 304 303 308 313 310 306 301 300 305 300 298 305 302 303 304 308 308 303 307 306 307 300 311 307 305 313 322 322 322 324 326 322 322 324 324 324 324 324 325 327 328 328 329
307 308 308 308 308 308 308 308 308 308 308 310 306 303 303 305 294 296 294 297 298 305 306 306 303 307 308 308 305 306 303 303 312 306 303 308 316 321 326 326 324 326 324 322 321 324 323 326 327 326 326 329 330 331
308 308 307 307 308 308 308 309 309 308 307 302 301 292 299 297 299 299 301 305 310 310 307 306 304 305 308 303 303 299 305 307 302 300 302 312 318 322 325 326 325 325 323 322 323 323 323 325 325 327 326 328 328 330
307 308 308 308 308 309 309 309 308 310 305 299 301 294 298 304 308 308 309 309 312 312 309 308 309 309 303 301 304 302 299 297 303 304 310 318 321 324 325 326 324 324 323 323 324 324 324 325 326 327 328 329 329 331
307 306 308 307 308 309 308 308 309 310 305 300 300 299 305 304 305 307 306 306 312 313 312 311 305 302 302 303 300 299 299 297 305 314 317 320 322 323 325 326 327 329 328 327 325 326 325 326 327 328 330 329 329 331
305 304 307 309 308 309 308 307 306 301 300 299 301 306 305 306 306 306 308 309 311 309 305 306 301 300 307 302 301 306 304 311 316 318 320 321 321 321 325 324 326 326 327 328 329 330 327 326 326 327 328 330 329 331
305 308 310 308 309 307 307 306 304 303 298 303 301 305 307 307 306 307 308 310 308 307 307 304 308 303 301 297 301 308 312 318 321 318 316 318 321 322 323 324 325 326 326 327 327 327 328 329 329 327 330 332 329 330
306 307 309 308 309 307 303 304 306 298 302 305 306 307 308 308 310 311 312 313 314 314 310 309 305 304 304 304 306 310 315 318 317 320 319 321 322 322 324 324 325 325 324 324 323 322 324 327 326 326 327 329 326 327
306 307 308 309 308 303 301 304 310 303 300 305 307 306 308 308 311 311 311 312 311 310 306 304 305 309 311 317 313 314 316 317 318 316 316 317 319 323 323 322 321 324 322 322 321 312 320 320 322 323 324 324 325 325
306 308 308 310 308 307 305 306 302 305 307 306 310 308 306 309 307 307 308 313 307 305 304 307 308 311 316 318 316 317 315 318 312 314 314 321 322 322 321 322 321 321 319 318 318 318 316 320 321 322 321 322 325 327
309 309 309 310 305 306 304 308 304 307 305 305 305 307 305 305 306 308 312 306 306 309 311 311 310 311 313 314 314 318 319 320 320 316 307 311 319 319 321 322 320 319 320 321 320 320 321 322 322 322 322 323 320 327
307 309 307 306 301 299 298 310 302 305 301 303 306 303 304 304 306 309 306 307 309 312 313 314 316 319 318 319 319 318 320 320 316 316 318 319 321 322 321 322 322 322 318 321 324 321 321 311 319 322 323 323 326 325
306 304 300 300 300 297 306 302 305 303 304 300 299 297 300 304 308 303 301 307 311 313 313 316 318 317 316 317 315 315 315 316 315 316 318 317 315 318 321 320 322 324 325 324 323 322 323 323 313 323 323 323 325 323
296 295 298 291 300 298 298 299 299 299 295 297 296 298 302 305 301 300 300 305 308 310 312 314 319 318 313 315 318 317 319 316 313 313 317 319 318 320 319 322 323 323 323 322 318 319 320 322 322 322 322 322 323 321
289 298 293 298 299 297 299 295 296 297 298 297 299 304 305 303 300 298 302 307 309 310 313 315 314 314 318 318 317 320 321 323 322 318 321 321 318 319 318 318 320 321 324 323 320 318 317 319 319 318 317 315 304 317
290 295 302 305 302 302 301 303 301 299 298 299 302 303 303 297 297 303 310 312 315 318 320 321 322 321 320 322 324 323 324 324 325 323 323 323 321 321 319 316 315 319 323 322 322 320 317 316 315 315 315 316 317 317
298 299 295 301 301 304 299 299 298 298 301 306 304 299 299 299 300 309 311 318 320 321 322 322 322 321 321 321 322 322 323 324 323 321 322 321 322 323 323 322 322 304 319 320 320 321 319 316 315 315 313 312 313 315
298 303 302 298 299 300 300 299 300 304 308 305 302 302 307 315 318 319 321 321 323 322 318 315 318 319 319 321 322 324 323 322 321 315 312 313 314 317 321 320 320 320 320 320 298 308 317 317 317 316 315 314 313 311
298 303 299 298 298 298 303 307 307 311 311 311 313 314 317 319 322 324 323 322 320 317 318 318 316 313 312 314 316 318 321 323 319 314 313 312 314 318 319 319 319 319 320 320 319 319 303 315 310 316 314 314 314 314
305 303 300 302 302 309 310 313 316 313 312 315 317 314 314 317 318 321 321 321 320 319 319 317 315 315 313 313 313 315 316 320 321 319 319 318 318 318 319 319 320 319 319 320 320 319 319 318 318 317 316 316 315 314
302 301 303 300 304 311 314 312 314 311 312 314 314 315 316 314 309 314 320 318 314 314 308 314 315 315 317 317 317 319 308 320 320 321 319 318 318 319 320 320 320 319 318 318 318 317 317 316 317 318 317 317 317 317
303 307 306 304 306 305 308 311 310 309 311 309 311 314 314 309 306 313 321 321 315 314 315 318 321 322 323 320 320 318 312 320 313 299 302 301 300 306 317 321 321 321 319 319 318 317 317 316 316 316 317 316 316 317
Wind_Speed
11 12 13 14 15 15 16 16 11 10 6 3 5 4 2 3 2 3 2 2 6 5 10 12 13 11 8 6 6 5 7 7 6 8 8 10 11 10 13 14 15 12 9 9 9 9 15 10 8 8 5 1 4 2
11 12 13 14 14 15 15 10 7 5 3 3 3 3 3 2 1 3 3 1 3 6 8 12 14 14 14 14 10 6 9 4 4 5 4 5 8 2 14 10 4 11 9 6 6 5 7 10 2 4 3 5 2 2
11 12 13 14 13 14 12 5 4 4 2 1 2 2 2 2 2 4 4 1 4 6 10 10 7 10 14 17 18 12 7 5 5 4 4 5 6 7 6 11 10 5 4 6 4 10 7 8 7 3 1 2 3 5
10 11 13 12 13 13 7 3 2 3 2 2 1 2 2 2 2 3 4 1 4 5 6 2 2 7 8 12 15 19 17 3 4 4 6 5 5 1 10 5 10 3 9 8 6 6 7 7 9 7 5 5 7 8
10 11 12 12 12 13 4 3 1 1 2 3 3 3 3 3 3 6 6 4 6 7 7 9 19 2 6 7 16 13 16 10 8 6 6 7 5 5 2 5 7 8 9 9 6 15 7 13 11 11 9 8 9 10
10 11 12 11 11 9 4 3 2 1 1 2 3 4 4 3 3 6 4 3 4 4 3 5 8 3 9 2 11 13 10 8 7 5 5 5 9 4 6 12 8 13 8 6 6 13 9 13 14 13 11 11 11 12
9 11 12 10 10 6 3 3 4 4 3 3 5 5 5 4 4 5 7 3 6 4 3 5 4 3 8 0 2 7 10 6 7 7 8 7 6 5 4 4 7 9 9 6 12 15 12 16 14 14 13 12 12 12
9 10 11 9 4 1 1 2 4 5 4 3 6 6 5 4 7 7 2 13 4 3 3 5 4 2 7 3 2 3 5 9 8 8 5 6 4 3 6 3 3 6 10 10 12 6 12 12 16 14 13 14 14 13
9 10 10 8 5 3 2 2 3 2 3 5 6 8 4 4 4 3 4 6 5 3 3 3 4 2 3 1 3 8 7 8 6 8 8 5 4 7 4 2 7 11 13 14 12 9 11 14 17 16 15 15 14 14
8 8 9 8 6 6 5 3 4 4 6 6 3 3 4 2 4 6 5 4 4 4 4 4 6 4 1 0 4 4 6 6 7 8 5 6 8 3 2 2 5 6 8 12 14 12 12 14 16 17 16 14 13 14
8 8 8 7 6 8 7 5 3 6 3 2 2 2 3 3 2 3 3 4 4 5 5 5 4 4 2 3 3 4 3 4 5 7 9 7 6 7 9 4 7 5 5 8 10 14 14 13 13 14 14 14 12 13
8 7 6 5 5 6 6 6 3 3 0 1 3 5 3 4 3 5 4 4 3 3 1 1 4 4 2 3 4 5 4 3 2 4 6 7 6 3 1 7 7 6 4 4 4 4 7 6 9 11 11 12 11 11
8 6 6 6 6 6 5 5 5 6 8 4 3 3 4 2 3 6 4 3 4 4 4 2 2 2 3 4 5 5 3 1 3 5 5 3 3 4 6 6 6 8 4 3 5 7 5 9 7 6 8 8 10 10
7 7 8 8 7 6 6 5 5 4 4 3 4 4 5 4 5 3 4 3 3 3 1 2 3 3 2 2 1 4 3 4 4 4 3 4 5 5 4 3 6 10 7 8 8 8 7 8 9 7 6 6 8 9
7 9 6 7 7 5 5 6 4 5 2 3 4 4 6 5 3 3 5 6 1 2 1 4 3 3 2 2 3 2 3 4 4 2 3 4 5 5 7 7 4 1 5 8 10 12 11 9 8 8 6 6 7 7
3 3 3 0 1 6 6 6 3 2 2 3 5 5 5 5 3 3 3 5 2 1 2 3 2 2 4 3 4 4 4 3 1 4 5 4 5 8 8 7 6 6 5 5 3 2 6 7 7 6 6 7 7 8
3 2 1 4 6 7 6 4 2 4 4 4 5 7 7 7 5 3 3 3 1 6 3 3 4 1 3 3 3 3 4 3 4 4 5 6 7 6 8 7 7 8 8 7 7 7 6 5 5 5 5 4 5 6
0 3 5 8 9 5 3 2 3 5 6 6 5 3 4 6 6 5 3 2 1 3 4 1 5 3 1 3 3 4 4 2 1 2 4 4 5 5 3 6 7 7 8 8 8 7 7 5 4 5 3 2 4 5
0 3 8 9 2 3 3 5 4 4 5 4 5 6 6 6 6 7 6 5 4 5 5 3 5 3 4 4 4 5 3 3 1 2 3 4 5 4 4 4 5 6 7 7 7 5 5 6 5 4 3 2 4 4
4 4 5 6 3 2 3 3 2 5 5 2 4 6 5 5 4 5 6 5 4 3 5 4 5 3 3 1 4 2 1 2 3 2 2 3 1 3 5 5 5 4 4 4 4 5 5 4 5 5 5 5 5 6
4 4 5 5 4 5 4 1 3 4 4 4 4 4 5 4 6 6 6 2 5 5 7 6 7 9 3 1 1 1 2 1 4 3 2 2 2 2 3 3 3 3 4 4 5 3 3 5 5 6 6 6 5 6
1 5 3 4 4 4 4 4 5 5 4 5 4 3 5 4 3 2 2 5 4 5 4 4 4 6 7 8 7 6 4 6 5 4 5 3 2 2 1 2 3 4 3 3 4 5 5 5 6 7 7 6 6 6
3 3 2 3 3 2 5 2 5 4 4 3 2 3 2 1 1 1 3 3 3 1 3 4 7 7 8 8 6 7 8 8 6 5 3 2 1 1 2 2 1 0 4 1 3 5 6 4 6 6 8 7 4 6
1 3 2 2 4 4 3 4 3 4 3 4 3 3 2 2 1 2 3 2 2 4 5 8 5 4 3 5 5 5 7 7 7 6 4 5 5 3 3 3 3 2 2 4 4 5 6 7 7 8 8 7 5 5
2 2 2 3 3 4 5 5 3 2 2 2 3 4 2 1 2 4 2 2 2 3 3 4 2 2 1 3 2 2 3 4 6 6 3 4 3 3 3 2 3 5 5 4 5 7 8 8 7 8 8 7 7 3
1 4 3 3 1 4 3 3 2 2 3 3 5 3 1 3 2 2 3 3 3 2 4 4 4 2 2 3 2 3 3 1 1 3 4 3 3 5 3 3 1 4 1 3 4 5 6 7 7 7 6 4 2 5
2 3 3 2 4 4 5 2 3 3 4 3 2 3 1 2 2 2 3 2 2 3 3 3 2 3 5 5 5 5 5 5 6 7 6 6 5 3 4 6 6 3 4 7 7 7 8 8 8 8 7 6 8 7
3 3 4 1 4 3 5 3 2 2 3 3 3 2 2 2 1 3 4 2 3 3 2 3 4 5 5 5 4 5 7 8 10 8 9 7 3 7 8 7 7 6 8 8 6 9 9 8 9 10 10 9 10 12
4 2 3 6 5 3 1 3 3 2 2 2 1 1 2 1 1 1 2 3 3 2 2 6 4 5 7 6 5 4 3 5 6 11 10 8 9 7 5 6 6 6 7 8 10 11 10 8 9 10 12 12 11 10
3 3 3 3 4 3 3 5 2 1 1 0 3 3 2 2 1 1 1 2 2 3 5 4 5 7 8 9 8 8 5 3 6 6 9 10 9 7 7 6 6 6 5 6 8 9 4 7 8 8 9 9 9 9
1 3 4 4 3 1 1 2 2 1 2 2 2 3 2 2 5 3 3 2 2 4 3 4 5 7 9 9 9 9 9 8 10 11 9 7 7 6 5 5 4 4 4 4 3 5 4 4 5 6 5 4 4 5
4 5 3 2 2 2 3 2 1 3 2 2 2 3 2 2 9 5 3 3 7 6 2 3 7 7 8 9 9 8 7 8 7 6 5 6 6 4 3 3 3 3 3 3 3 6 4 5 5 4 5 4 4 5
4 1 3 3 3 1 2 3 2 2 2 4 3 1 1 6 9 4 3 4 6 7 7 7 6 6 6 6 7 6 5 7 7 7 6 8 10 9 7 1 2 3 3 3 3 7 8 10 9 10 10 11 11 11
Wind_Direction
300 305 309 310 311 311 311 312 307 309 318 38 126 144 177 169 180 274 11 249 273 272 288 269 267 263 258 249 275 354 285 195 244 236 226 232 245 201 231 218 189 192 212 214 242 268 259 129 153 250 41 46 351 284
300 306 308 308 310 311 316 318 338 348 36 73 112 136 133 129 167 283 265 154 247 260 298 320 279 273 263 264 279 261 303 319 327 283 249 295 218 205 222 195 232 211 228 295 230 341 119 169 55 132 335 317 320 247
300 303 305 307 308 310 314 323 342 352 23 94 150 192 210 223 225 262 300 272 232 271 267 239 236 233 231 237 245 252 241 259 236 5 320 298 270 262 234 225 171 187 184 237 187 172 161 172 157 148 160 2 134 140
297 303 305 305 307 307 289 293 331 348 360 340 310 249 224 232 256 256 271 348 274 288 278 325 223 263 278 262 229 227 235 235 313 279 278 276 266 125 234 246 220 82 159 192 190 135 144 171 180 172 141 139 139 138
298 301 308 306 307 310 248 240 263 317 4 1 343 314 297 288 259 259 251 252 271 286 316 311 298 40 273 249 232 213 221 228 259 246 236 249 269 246 226 312 187 177 184 202 240 154 212 154 170 156 154 158 156 153
294 298 305 303 303 304 233 224 249 282 295 287 306 314 310 294 282 265 222 158 207 223 292 289 354 305 322 296 208 204 184 202 228 233 229 248 265 274 234 216 197 187 185 261 133 146 150 146 152 158 153 153 152 153
295 298 303 302 307 291 222 229 253 258 271 306 310 296 301 295 259 268 352 40 155 172 247 272 259 25 315 63 92 184 180 209 226 223 225 244 260 230 265 231 161 189 171 148 142 129 130 150 160 163 154 152 156 150
293 298 304 296 293 44 45 283 279 259 252 280 300 292 281 279 274 261 189 189 185 252 237 272 273 226 345 344 146 181 191 198 200 242 241 241 195 229 254 234 347 183 161 163 174 167 160 164 145 158 157 156 168 167
289 298 303 311 212 215 244 308 1 325 301 301 297 296 242 220 229 70 95 142 189 290 279 264 274 308 24 329 272 200 199 190 192 216 221 233 176 222 269 311 235 195 179 180 179 151 151 154 156 159 165 174 179 179
289 295 302 306 218 222 249 283 300 306 294 300 268 225 211 116 54 144 194 189 174 197 225 252 278 263 210 328 283 244 191 209 190 203 187 239 228 209 229 225 239 226 219 176 162 164 166 157 165 168 176 182 188 183
290 295 287 293 235 227 244 254 292 311 262 218 223 262 10 121 223 222 251 214 170 219 206 220 271 268 147 204 273 283 232 199 216 148 202 205 201 207 162 160 107 144 177 213 197 167 171 165 173 177 183 185 190 184
286 282 274 281 260 240 250 231 260 271 248 308 290 263 267 230 210 254 234 171 201 281 315 224 222 216 189 203 240 228 260 206 212 151 216 216 184 214 260 261 122 111 122 198 264 176 162 158 170 176 186 190 197 194
286 271 273 274 272 265 234 222 230 275 278 205 227 238 212 187 237 230 212 100 210 203 212 210 250 234 163 213 244 269 287 85 291 212 208 78 18 352 326 296 316 266 169 270 246 234 166 148 152 179 177 173 185 187
268 265 267 259 254 248 242 215 233 239 260 253 234 239 239 202 243 215 271 314 318 272 273 255 231 213 165 233 287 305 359 257 244 199 149 61 24 355 319 276 242 246 239 248 236 224 209 183 164 165 186 159 181 187
256 258 270 266 243 224 195 182 212 235 268 262 245 246 233 260 270 240 269 294 359 280 293 270 236 158 157 249 234 216 334 326 258 100 60 64 29 31 31 24 26 188 225 234 229 213 205 197 181 170 172 185 193 190
232 269 227 59 259 179 165 170 213 243 234 246 242 265 254 267 266 258 302 309 16 293 232 267 264 191 201 228 222 225 209 217 3 80 106 106 61 61 43 42 52 47 63 58 42 187 199 195 188 194 176 199 198 202
230 243 210 258 180 158 174 238 211 225 256 234 226 230 271 269 269 316 291 321 301 310 349 247 258 102 289 238 226 236 2 55 86 97 85 70 42 42 34 34 43 55 58 62 74 78 91 108 121 132 159 180 215 207
306 317 178 154 157 158 187 235 250 240 238 238 256 282 257 279 278 249 271 244 262 303 304 330 298 240 184 282 324 357 346 0 72 61 81 63 52 32 25 40 45 42 48 48 54 61 54 63 118 109 135 157 228 209
57 347 151 176 243 251 216 207 238 267 249 271 263 262 266 272 269 271 271 268 258 279 285 257 254 258 138 224 284 308 357 19 73 130 92 30 8 12 27 46 63 54 52 47 40 43 52 41 36 26 5 314 299 290
219 213 205 215 248 271 246 190 254 284 278 6 267 264 261 278 298 273 269 255 243 236 240 234 262 327 83 73 198 272 306 330 6 62 98 118 134 159 59 33 37 28 51 50 60 27 17 26 30 10 3 338 312 296
234 144 183 220 206 234 281 301 238 239 295 269 285 287 283 265 260 257 254 263 233 240 246 246 271 288 329 28 81 124 123 47 7 355 314 250 136 79 84 36 352 357 353 1 354 27 352 5 357 348 332 314 315 313
97 181 195 190 247 222 252 229 286 324 269 289 290 256 267 267 286 297 328 224 242 257 271 296 296 290 278 260 249 217 210 189 213 199 198 203 188 164 203 10 346 6 11 359 342 337 332 333 356 326 317 335 311 312
242 222 213 219 251 229 269 241 255 227 260 273 237 267 270 301 251 260 238 251 259 320 289 291 296 283 274 283 259 239 207 212 232 233 187 244 181 231 265 231 244 291 290 138 319 312 314 336 282 302 314 300 328 306
241 244 254 235 220 270 249 238 222 268 305 345 300 272 268 294 23 20 288 291 349 335 320 303 294 287 240 224 238 218 208 217 238 245 249 272 266 178 244 292 288 306 353 341 318 300 306 303 302 294 304 300 289 277
235 243 199 265 232 251 239 234 224 29 283 253 245 247 212 211 229 209 252 321 298 270 310 324 326 267 325 290 271 139 170 225 231 242 218 244 264 245 243 16 36 35 25 9 351 333 327 308 311 316 306 289 313 294
244 183 200 247 179 256 293 296 4 257 246 242 229 257 273 227 222 21 354 320 300 308 335 355 349 358 345 56 14 67 76 21 266 256 73 20 342 328 320 291 173 75 17 323 352 347 345 339 346 355 10 348 313 295
256 235 196 222 286 267 262 321 337 268 260 274 355 311 319 19 44 6 294 259 283 334 345 347 0 28 60 53 53 61 71 73 76 87 96 81 71 72 62 85 84 61 38 35 26 29 33 31 26 25 48 43 39 31
270 275 259 162 267 260 287 317 310 279 296 347 328 347 342 58 279 234 235 273 300 339 354 48 52 52 48 55 54 91 94 99 101 107 95 72 98 79 80 76 74 27 45 43 58 87 73 74 73 75 69 67 67 64
242 208 256 262 247 246 64 237 258 252 315 273 339 294 59 83 151 174 304 317 321 297 142 90 92 134 116 88 95 126 87 119 129 112 109 113 109 101 108 111 114 102 95 97 54 40 43 75 85 92 90 89 85 79
227 194 249 244 246 212 220 199 244 263 245 203 265 280 255 234 158 60 245 184 222 117 54 41 61 61 62 82 90 85 86 78 136 116 112 107 106 100 96 94 92 93 96 103 110 120 171 153 152 130 108 107 111 114
182 216 238 245 287 339 319 289 262 169 305 267 268 278 93 48 118 106 65 62 131 150 139 102 76 59 62 53 71 92 86 81 73 80 93 108 107 101 88 82 85 87 80 69 79 109 155 134 117 134 130 98 86 326
204 226 251 273 316 304 326 334 278 190 221 245 169 195 208 147 94 93 40 336 84 87 43 72 102 83 81 82 80 77 71 102 114 117 118 96 96 84 90 86 99 79 66 75 68 101 120 69 65 57 94 67 62 55
221 247 263 253 234 346 303 273 243 189 167 158 113 70 334 77 92 96 102 10 58 85 83 79 83 87 81 75 89 99 86 86 68 40 39 19 14 357 318 302 60 332 338 25 95 112 96 87 80 77 78 76 76 77